[[{"header":{"parameterUnit":"m.s-1","parameterCategory":1,"la1":30.2991,"la2":30.254,"lo1":-89.0895,"lo2":-89.0444,"dy":0.0017,"dx":0.0017,"nx":28,"ny":28,"refTime":"2024-05-31T09:00:00:Z","depth":0,"parameterNumber":2,"parameterNumberName":"U-component_of_WINDS"},"data":[0,0,0,0,0,0,0,0,0,0,0,0,0,0,0,0,0,0,0,0,0,0,0,0,0,0,0,0,0,0,0,0,0,0,0,0,0,0,0,0,0,0,0,0,0,0,0,0,0,0,0,0,0,0,0,0,0,0,-3.2668,-3.2668,0,-3.2661,-3.2661,-3.2661,-3.2645,-3.2645,-3.2645,-3.2644,-3.2635,-3.2635,-3.2635,0,0,0,0,0,0,0,0,0,0,0,0,0,-3.2665,-3.2665,-3.2668,-3.2668,-3.2668,-3.2661,-3.2661,-3.2661,-3.2645,-3.2645,-3.2645,-3.2644,-3.2635,-3.2635,-3.2635,0,0,0,0,0,0,0,0,0,0,0,0,0,-3.2663,-3.2665,-3.2668,-3.2659,-3.2659,-3.2661,-3.2661,-3.2661,-3.2646,-3.2645,-3.2645,-3.2644,-3.2635,-3.2635,-3.2635,-3.2645,0,0,-3.2635,-3.2635,0,0,0,0,0,0,0,0,-3.2663,-3.2663,-3.2661,-3.266,-3.2659,-3.2654,-3.2656,-3.2655,-3.2646,-3.265,-3.2644,-3.2644,-3.2641,-3.2641,-3.2641,-3.2644,-3.2644,-3.2635,-3.2635,-3.2635,-3.2635,0,0,0,0,0,0,0,-3.2663,-3.2663,-3.2665,-3.2661,-3.266,-3.2655,-3.2654,-3.2656,-3.2648,-3.265,-3.2649,-3.2648,-3.2641,-3.2641,-3.264,-3.2644,-3.2635,-3.2635,-3.2635,-3.2635,-3.2651,-3.2652,0,0,0,0,0,0,-3.2665,-3.2663,-3.2665,-3.2665,-3.266,-3.2655,-3.2654,-3.2656,-3.2648,-3.2647,-3.2649,-3.2648,-3.2641,-3.264,-3.264,-3.2648,-3.2635,-3.2635,-3.2635,-3.2651,-3.2652,-3.2652,0,0,0,0,0,0,-3.2665,-3.2665,-3.2666,-3.2664,-3.2664,-3.2656,-3.2658,-3.2656,-3.2656,-3.2648,-3.2646,-3.265,-3.264,-3.264,-3.2643,-3.2648,-3.2635,-3.2635,-3.2651,-3.2651,-3.2652,-3.2667,0,0,0,0,0,0,-3.2665,-3.2665,-3.267,-3.2664,-3.2664,-3.267,-3.2658,-3.2656,-3.2656,-3.2654,-3.2648,-3.2647,-3.264,-3.2643,-3.2643,-3.2648,-3.2635,-3.265,-3.2651,-3.2652,-3.2666,-3.2668,-3.267,0,0,0,0,0,-3.2665,-3.2675,-3.267,-3.2671,-3.2669,-3.2671,-3.267,-3.2663,-3.2657,-3.266,-3.2654,-3.2647,-3.2648,-3.2643,-3.2643,-3.2648,-3.265,-3.2651,-3.2652,-3.2665,-3.2668,-3.267,0,0,0,0,0,0,-3.2681,-3.2674,-3.2669,-3.2677,-3.2675,-3.2668,-3.2673,-3.2666,-3.2665,-3.2663,-3.2653,-3.2652,-3.2656,-3.2653,-3.2648,-3.2656,-3.2647,-3.2648,-3.2658,-3.266,-3.2662,-3.2662,-3.2636,0,0,0,0,0,-3.2686,-3.2688,-3.2681,-3.2689,-3.2688,-3.2681,-3.2681,-3.2675,-3.2672,-3.267,-3.2665,-3.2662,-3.266,-3.266,-3.2659,-3.2666,-3.2663,-3.2669,-3.2671,-3.2672,-3.2673,-3.2674,-3.2676,-3.2655,-3.2655,-3.2655,0,0,-3.2695,-3.2691,-3.2694,-3.2692,-3.269,-3.2691,-3.268,-3.2682,-3.2683,-3.2671,-3.2673,-3.2669,-3.2664,-3.2668,-3.267,-3.2665,-3.2678,-3.2673,-3.2675,-3.2674,-3.2675,-3.2677,-3.2679,-3.2656,-3.2655,-3.2655,0,0,-3.2713,-3.2711,-3.2716,-3.2714,-3.271,-3.2704,-3.2705,-3.2699,-3.2696,-3.2699,-3.2689,-3.2689,-3.2688,-3.2684,-3.2682,-3.2696,-3.2688,-3.2696,-3.2706,-3.2707,-3.2708,-3.2709,-3.2713,-3.2714,-3.2697,-3.2697,-3.2697,0,-3.2725,-3.2727,-3.272,-3.2722,-3.2721,-3.271,-3.2715,-3.2712,-3.2708,-3.2707,-3.2702,-3.2699,-3.2695,-3.2697,-3.2701,-3.27,-3.27,-3.2696,-3.2709,-3.271,-3.2711,-3.2714,-3.2716,-3.2697,-3.2697,-3.2697,-3.2697,0,-3.2741,-3.2743,-3.2748,-3.2744,-3.2743,-3.2747,-3.2738,-3.2738,-3.2732,-3.2727,-3.2728,-3.2722,-3.2719,-3.2719,-3.2714,-3.272,-3.2717,-3.2711,-3.2702,-3.2714,-3.2717,-3.2718,-3.2699,-3.2698,-3.2698,-3.2698,0,0,-3.2769,-3.276,-3.2762,-3.2759,-3.2753,-3.2753,-3.2755,-3.2752,-3.2752,-3.2749,-3.2749,-3.2748,-3.2741,-3.2739,-3.2732,-3.2733,-3.2742,-3.2726,-3.2726,-3.2728,-3.2747,-3.2751,-3.2752,-3.2737,-3.2737,-3.2738,-3.2747,0,-3.2784,-3.2788,-3.278,-3.2785,-3.2786,-3.2775,-3.2776,-3.2772,-3.2766,-3.2765,-3.2758,-3.2757,-3.2749,-3.2748,-3.2748,-3.2741,-3.2746,-3.274,-3.2736,-3.2736,-3.2737,-3.2754,-3.2759,-3.2768,-3.2748,-3.2748,-3.2748,0,-3.2803,-3.28,-3.2805,-3.2797,-3.2797,-3.2799,-3.2794,-3.2794,-3.2787,-3.2783,-3.278,-3.2772,-3.2772,-3.2764,-3.2762,-3.2759,-3.2756,-3.2752,-3.2752,-3.2751,-3.2742,-3.2752,-3.2771,-3.2772,-3.275,-3.275,-3.275,0,-3.282,-3.2818,-3.2821,-3.2819,-3.281,-3.2811,-3.2807,-3.2801,-3.2799,-3.2794,-3.2793,-3.2788,-3.2786,-3.2782,-3.2772,-3.2768,-3.2771,-3.2763,-3.2766,-3.2766,-3.2767,-3.2767,-3.2784,-3.2767,-3.2767,-3.2767,-3.2767,0,-3.2837,-3.284,-3.2828,-3.283,-3.2832,-3.2823,-3.2825,-3.282,-3.2814,-3.2813,-3.2803,-3.2802,-3.279,-3.2787,-3.278,-3.2778,-3.2777,-3.2773,-3.2771,-3.2773,-3.2774,-3.2771,-3.277,-3.2767,-3.2767,-3.2767,-3.2767,0,-3.2857,-3.285,-3.2851,-3.2842,-3.284,-3.2842,-3.2834,-3.2834,-3.2827,-3.2826,-3.2825,-3.2814,-3.281,-3.2801,-3.2794,-3.2789,-3.2789,-3.2786,-3.2791,-3.279,-3.2793,-3.2792,-3.2809,-3.281,-3.2793,-3.2793,-3.2793,0,-3.2868,-3.287,-3.2861,-3.286,-3.2857,-3.2855,-3.2853,-3.2843,-3.2841,-3.2833,-3.2833,-3.2829,-3.2824,-3.2818,-3.2809,-3.2804,-3.2799,-3.2805,-3.2798,-3.28,-3.2798,-3.2797,-3.2797,-3.2807,-3.2807,-3.2807,-3.2807,0,-3.2887,-3.2883,-3.2881,-3.2876,-3.2874,-3.287,-3.2866,-3.2865,-3.2854,-3.2851,-3.2847,-3.2844,-3.2837,-3.2832,-3.2824,-3.2819,-3.2811,-3.281,-3.281,-3.2812,-3.2815,-3.2812,-3.2794,-3.2809,-3.2809,-3.2809,-3.2809,-3.2809,-3.2902,-3.2902,-3.2896,-3.2893,-3.2889,-3.2884,-3.2883,-3.2876,-3.2873,-3.2867,-3.2861,-3.2857,-3.2849,-3.2839,-3.2834,-3.2829,-3.2825,-3.2826,-3.2826,-3.2826,-3.2827,-3.2816,-3.2828,-3.2828,-3.2828,-3.2828,-3.2828,0,-3.2919,-3.2914,-3.2912,-3.2906,-3.2903,-3.2896,-3.289,-3.2888,-3.2885,-3.2879,-3.2874,-3.2869,-3.2863,-3.2854,-3.2847,-3.2845,-3.2841,-3.2844,-3.2843,-3.2842,-3.2831,-3.2831,-3.2847,-3.2847,-3.2847,-3.2847,-3.2847,-3.2847,-3.2928,-3.2928,-3.2923,-3.292,-3.2915,-3.2911,-3.2908,-3.2903,-3.2898,-3.2893,-3.2888,-3.2882,-3.2874,-3.2866,-3.286,-3.2857,-3.2855,-3.2858,-3.2854,-3.2844,-3.2843,-3.2841,-3.2841,-3.2858,-3.2858,-3.2864,-3.2865,-3.2865]},{"header":{"parameterUnit":"m.s-1","parameterCategory":1,"la1":30.2991,"la2":30.254,"lo1":-89.0895,"lo2":-89.0444,"dy":0.0017,"dx":0.0017,"nx":28,"ny":28,"refTime":"2024-05-31T09:00:00:Z","depth":0,"parameterNumber":3,"parameterNumberName":"V-component_of_WINDS"},"data":[0,0,0,0,0,0,0,0,0,0,0,0,0,0,0,0,0,0,0,0,0,0,0,0,0,0,0,0,0,0,0,0,0,0,0,0,0,0,0,0,0,0,0,0,0,0,0,0,0,0,0,0,0,0,0,0,0,0,4.7328,4.7328,0,4.7285,4.7284,4.7284,4.7235,4.7234,4.7234,4.7233,4.7188,4.7188,4.7187,0,0,0,0,0,0,0,0,0,0,0,0,0,4.7367,4.7367,4.7328,4.7328,4.7327,4.7285,4.7284,4.7284,4.7235,4.7234,4.7233,4.7233,4.7188,4.7188,4.7187,0,0,0,0,0,0,0,0,0,0,0,0,0,4.734,4.7367,4.7328,4.7298,4.7295,4.7285,4.7284,4.7284,4.7235,4.7234,4.7233,4.7232,4.7188,4.7188,4.7187,4.7204,0,0,4.7185,4.7184,0,0,0,0,0,0,0,0,4.7342,4.7339,4.7303,4.73,4.7296,4.7264,4.7282,4.7257,4.7236,4.7258,4.7233,4.7232,4.7214,4.7211,4.7206,4.7202,4.72,4.7184,4.7184,4.7184,4.7183,0,0,0,0,0,0,0,4.7344,4.734,4.7311,4.7302,4.7299,4.7286,4.7281,4.7277,4.7243,4.7256,4.7252,4.7248,4.7212,4.7206,4.7204,4.7199,4.7184,4.7184,4.7183,4.7183,4.7203,4.7204,0,0,0,0,0,0,4.735,4.7342,4.7312,4.731,4.7317,4.7286,4.728,4.7276,4.7243,4.7237,4.7249,4.7246,4.7208,4.7205,4.7202,4.7217,4.7184,4.7183,4.7182,4.7202,4.7203,4.7205,0,0,0,0,0,0,4.7351,4.7348,4.7314,4.7325,4.732,4.7287,4.7282,4.7275,4.7269,4.7237,4.7231,4.7249,4.7207,4.7203,4.7203,4.7215,4.7183,4.7182,4.7201,4.7203,4.7204,4.7249,0,0,0,0,0,0,4.7353,4.7349,4.7355,4.7325,4.7319,4.7316,4.7283,4.7275,4.7268,4.7264,4.7236,4.723,4.7206,4.7204,4.7202,4.7213,4.7181,4.72,4.7202,4.7204,4.7246,4.7252,4.7257,0,0,0,0,0,4.7354,4.737,4.7356,4.7352,4.7327,4.7317,4.7314,4.7286,4.727,4.7275,4.7254,4.7231,4.7215,4.7205,4.7202,4.7213,4.7199,4.7201,4.7203,4.7244,4.7251,4.7257,0,0,0,0,0,0,4.7402,4.7366,4.7349,4.7356,4.734,4.7309,4.7315,4.7294,4.7283,4.7279,4.7245,4.7239,4.7242,4.7228,4.7217,4.7226,4.7203,4.7205,4.7235,4.7241,4.7246,4.7249,4.7181,0,0,0,0,0,4.7414,4.741,4.7378,4.7387,4.7379,4.7349,4.7344,4.7324,4.7306,4.7298,4.7277,4.726,4.7251,4.7246,4.7236,4.7244,4.7236,4.7251,4.7256,4.726,4.7262,4.7263,4.7268,4.7212,4.7212,4.7212,0,0,4.7437,4.7417,4.7416,4.7396,4.7381,4.7376,4.7344,4.7341,4.7336,4.7298,4.7295,4.728,4.7258,4.7262,4.7262,4.725,4.7275,4.7263,4.7267,4.7266,4.7266,4.7271,4.7276,4.7214,4.7213,4.7213,0,0,4.7477,4.7462,4.7467,4.7453,4.743,4.741,4.7411,4.7383,4.737,4.7368,4.7338,4.7332,4.7318,4.7303,4.7293,4.7326,4.7303,4.7324,4.7351,4.7352,4.7356,4.736,4.7369,4.7373,4.7326,4.7326,4.7326,0,4.7509,4.7501,4.7472,4.747,4.7461,4.7426,4.743,4.7417,4.7393,4.7387,4.7374,4.7353,4.7337,4.7335,4.7343,4.7337,4.7336,4.7326,4.7358,4.7362,4.7364,4.7373,4.7377,4.7328,4.7328,4.7328,4.7328,0,4.7541,4.7536,4.7542,4.7519,4.7511,4.7512,4.7482,4.7477,4.7458,4.7438,4.7434,4.7413,4.7397,4.7395,4.7377,4.739,4.7383,4.7365,4.734,4.7373,4.738,4.7383,4.7332,4.7331,4.733,4.733,0,0,4.7609,4.7569,4.7572,4.756,4.7532,4.7527,4.7526,4.751,4.7506,4.749,4.7487,4.7475,4.7457,4.7446,4.7425,4.7427,4.7451,4.7407,4.7406,4.7414,4.7462,4.7474,4.7479,4.7436,4.7437,4.7437,4.7463,0,4.7643,4.7639,4.7612,4.7615,4.7609,4.7575,4.7573,4.7556,4.7537,4.7529,4.7508,4.7499,4.7477,4.747,4.747,4.7448,4.746,4.7446,4.7431,4.7431,4.7436,4.7483,4.7497,4.7522,4.7466,4.7466,4.7466,0,4.7681,4.7667,4.767,4.764,4.7637,4.7636,4.7618,4.7611,4.7589,4.7576,4.7563,4.7539,4.7534,4.7513,4.7505,4.7496,4.7489,4.7477,4.7477,4.7473,4.745,4.7478,4.753,4.7533,4.7471,4.7471,4.747,0,4.7729,4.771,4.7709,4.77,4.7666,4.7666,4.7652,4.763,4.7621,4.7605,4.7599,4.7583,4.7574,4.7561,4.7533,4.7521,4.7527,4.7504,4.7514,4.7515,4.7516,4.7516,4.7565,4.7514,4.7514,4.7514,4.7514,0,4.7768,4.777,4.7729,4.7728,4.7729,4.7698,4.77,4.7682,4.7662,4.7656,4.7626,4.7621,4.7585,4.7575,4.7553,4.7548,4.7545,4.7533,4.7526,4.7534,4.7536,4.7528,4.7524,4.7515,4.7515,4.7515,4.7515,0,4.782,4.7793,4.7789,4.7757,4.7749,4.7751,4.7723,4.772,4.77,4.7692,4.7689,4.7656,4.7643,4.7614,4.7593,4.7578,4.7578,4.7568,4.7585,4.7581,4.7591,4.759,4.7635,4.7639,4.7588,4.7589,4.7589,0,4.7846,4.7847,4.7815,4.7809,4.7796,4.7787,4.7777,4.7746,4.7738,4.7712,4.7712,4.7696,4.7682,4.7662,4.7636,4.7619,4.7607,4.7624,4.7604,4.7611,4.7605,4.7604,4.7603,4.7628,4.7629,4.7629,4.763,0,4.7894,4.788,4.7869,4.7852,4.7842,4.7827,4.781,4.7807,4.7771,4.7763,4.7749,4.7738,4.7716,4.77,4.7679,4.7663,4.764,4.7636,4.7637,4.7645,4.7654,4.7647,4.7595,4.7635,4.7635,4.7634,4.7634,4.7634,4.7932,4.7931,4.7908,4.7895,4.7879,4.7864,4.7859,4.7838,4.7826,4.7805,4.7787,4.7775,4.7751,4.772,4.7706,4.7694,4.7683,4.7685,4.7685,4.7686,4.7688,4.7657,4.769,4.769,4.769,4.769,4.769,0,4.7977,4.796,4.7949,4.7927,4.7916,4.7896,4.7876,4.7869,4.7858,4.7838,4.7824,4.7807,4.7791,4.7763,4.7744,4.774,4.7729,4.7736,4.7735,4.7731,4.77,4.77,4.7745,4.7745,4.7745,4.7745,4.7745,4.7745,4.7999,4.7995,4.7978,4.7965,4.7948,4.7935,4.7925,4.791,4.7894,4.7876,4.7863,4.7845,4.7821,4.78,4.7784,4.7776,4.7769,4.778,4.7768,4.7739,4.7734,4.7729,4.7729,4.7779,4.7779,4.78,4.78,4.78]}]]